Weather History for Thedford, NE

Change the Weather History Date:

Tuesday, March 12, 2013

  Actual Average (KLBF) Record (KLBF)
Temperature  
Mean Temperature 30 °F 37 °F  
Max Temperature 39 °F 51 °F 78 °F (1916)
Min Temperature 22 °F 22 °F -7 °F (1880)
Degree Days  
Heating Degree Days 34 28  
Month to date heating degree days 358  
Since 1 July heating degree days 5386  
Cooling Degree Days 0 0  
Month to date cooling degree days 0  
Year to date cooling degree days 0  
Moisture  
Dew Point 14 °F    
Average Humidity 49    
Maximum Humidity 70    
Minimum Humidity 29    
Precipitation  
Precipitation 0.00 in 0.03 in 0.93 in (1961)
Month to date precipitation 0.34  
Year to date precipitation 1.18  
Snow  
Snow 0.00 in 0.20 in 4.30 in (1952)
Month to date snowfall 1.9  
Since 1 July snowfall 22.8  
Snow Depth -    
Sea Level Pressure  
Sea Level Pressure 30.20 in    
Wind  
Wind Speed 14 mph (NW)    
Max Wind Speed 31 mph    
Max Gust Speed 38 mph    
Visibility 10 miles    
Events      
T = Trace of Precipitation, MM = Missing Value Source: NWS Daily Summary

Daily Weather History Graph

Daily Weather History Graph

Search for Another Location

Airport:

Trip Planner

Search our weather history database for the weather conditions in past years. The results will help you decide how hot, cold, wet, or windy it might be!

Date:

Astronomy

Mar. 12, 2013 Rise Set
Actual Time 7:58 AM CDT 7:45 PM CDT
Civil Twilight 7:30 AM CDT 8:13 PM CDT
Nautical Twilight 6:58 AM CDT 8:45 PM CDT
Astronomical Twilight 6:25 AM CDT 9:18 PM CDT
Moon 8:04 AM CDT (3/12) 9:04 PM CDT (3/12)
Length of Visible Light 12h 42m
Length of Day
11h 47m
New Moon, 1% of the Moon is Illuminated
Mar 12
New Moon
Mar 19
First Quarter
Mar 27
Full
Apr 2
Last Quarter
Apr 10
New

Hourly Weather History & Observations

Time (CDT) Temp. Windchill Dew Point Humidity Pressure Visibility Wind Dir Wind Speed Gust Speed Precip Events Conditions
12:15 AM 33.8 °F 28.6 °F 21.7 °F 61% 30.07 in 10.0 mi WNW 5.8 mph - N/A   Scattered Clouds
12:35 AM 32.2 °F 25.8 °F 21.7 °F 65% 30.07 in 10.0 mi NW 6.9 mph - N/A   Scattered Clouds
12:55 AM 32.4 °F 26.0 °F 21.9 °F 65% 30.08 in 10.0 mi WNW 6.9 mph - N/A   Scattered Clouds
1:15 AM 32.7 °F 25.7 °F 21.9 °F 64% 30.09 in 10.0 mi NW 8.1 mph - N/A   Mostly Cloudy
1:35 AM 33.8 °F 28.6 °F 21.7 °F 61% 30.09 in 10.0 mi WNW 5.8 mph - N/A   Scattered Clouds
1:55 AM 32.7 °F 26.4 °F 22.6 °F 66% 30.10 in 10.0 mi WNW 6.9 mph - N/A   Scattered Clouds
2:15 AM 33.3 °F 25.1 °F 22.1 °F 64% 30.10 in 10.0 mi NW 10.4 mph - N/A   Scattered Clouds
2:35 AM 34.0 °F 25.0 °F 21.0 °F 59% 30.11 in 10.0 mi NW 12.7 mph 19.6 mph N/A   Scattered Clouds
2:55 AM 34.3 °F 23.5 °F 20.3 °F 57% 30.12 in 10.0 mi NW 18.4 mph 24.2 mph N/A   Mostly Cloudy
3:15 AM 33.8 °F 23.5 °F 19.9 °F 57% 30.12 in 10.0 mi NNW 16.1 mph 25.3 mph N/A   Mostly Cloudy
3:35 AM 33.1 °F 21.9 °F 18.3 °F 55% 30.11 in 10.0 mi NNW 18.4 mph 24.2 mph N/A   Scattered Clouds
3:55 AM 32.2 °F 21.8 °F 18.5 °F 57% 30.12 in 10.0 mi NW 15.0 mph 23.0 mph N/A   Scattered Clouds
4:15 AM 32.0 °F 21.6 °F 18.7 °F 58% 30.12 in 10.0 mi NW 15.0 mph 21.9 mph N/A   Mostly Cloudy
4:35 AM 31.8 °F 19.6 °F 17.8 °F 56% 30.12 in 10.0 mi NW 20.7 mph 27.6 mph N/A   Mostly Cloudy
4:55 AM 30.9 °F 19.4 °F 17.2 °F 57% 30.13 in 10.0 mi NW 17.3 mph 24.2 mph N/A   Clear
5:15 AM 30.6 °F 17.9 °F 15.3 °F 53% 30.13 in 10.0 mi NW 20.7 mph 28.8 mph N/A   Clear
5:35 AM 29.8 °F 17.3 °F 14.2 °F 52% 30.14 in 10.0 mi NW 19.6 mph 27.6 mph N/A   Clear
5:55 AM 28.9 °F 16.9 °F 14.2 °F 54% 30.15 in 10.0 mi NW 17.3 mph 27.6 mph N/A   Clear
6:15 AM 28.2 °F 15.9 °F 14.2 °F 56% 30.15 in 10.0 mi NW 17.3 mph 23.0 mph N/A   Clear
6:35 AM 27.5 °F 14.6 °F 14.0 °F 57% 30.16 in 10.0 mi NW 18.4 mph 23.0 mph N/A   Clear
6:55 AM 27.5 °F 15.4 °F 13.8 °F 56% 30.17 in 10.0 mi NW 16.1 mph - N/A   Clear
7:15 AM 27.3 °F 15.6 °F 13.5 °F 56% 30.17 in 10.0 mi NW 15.0 mph 23.0 mph N/A   Clear
7:35 AM 26.6 °F 15.2 °F 13.1 °F 57% 30.18 in 10.0 mi NW 13.8 mph 20.7 mph N/A   Clear
7:55 AM 26.4 °F 14.5 °F 13.3 °F 58% 30.19 in 10.0 mi NW 15.0 mph 23.0 mph N/A   Clear
8:55 AM 27.3 °F 13.6 °F 13.8 °F 57% 30.20 in 10.0 mi NW 20.7 mph 29.9 mph N/A   Clear
9:15 AM 28.2 °F 13.6 °F 13.6 °F 54% 30.20 in 10.0 mi NW 25.3 mph 31.1 mph N/A   Clear
9:35 AM 28.8 °F 13.5 °F 13.5 °F 53% 30.21 in 10.0 mi NW 28.8 mph 34.5 mph N/A   Clear
9:55 AM 29.3 °F 14.5 °F 13.5 °F 52% 30.22 in 10.0 mi NW 27.6 mph 38.0 mph N/A   Clear
10:15 AM 30.0 °F 14.7 °F 13.3 °F 50% 30.22 in 10.0 mi NNW 31.1 mph 36.8 mph N/A   Clear
10:35 AM 30.2 °F 14.9 °F 13.6 °F 50% 30.23 in 10.0 mi NNW 31.1 mph 38.0 mph N/A   Clear
10:55 AM 30.9 °F 17.8 °F 13.3 °F 48% 30.23 in 10.0 mi NW 23.0 mph 38.0 mph N/A   Clear
11:15 AM 31.6 °F 18.4 °F 14.0 °F 48% 30.24 in 10.0 mi NW 24.2 mph 34.5 mph N/A   Clear
11:35 AM 32.0 °F 18.6 °F 13.1 °F 46% 30.24 in 10.0 mi NW 25.3 mph 34.5 mph N/A   Clear
11:55 AM 32.2 °F 18.1 °F 12.4 °F 44% 30.25 in 10.0 mi NW 28.8 mph 36.8 mph N/A   Clear
12:15 PM 32.5 °F 19.9 °F 12.9 °F 44% 30.25 in 10.0 mi NW 23.0 mph 33.4 mph N/A   Clear
12:35 PM 33.3 °F 20.3 °F 12.2 °F 42% 30.25 in 10.0 mi NW 25.3 mph 33.4 mph N/A   Clear
12:55 PM 34.0 °F 21.5 °F 11.1 °F 39% 30.26 in 10.0 mi NW 24.2 mph 34.5 mph N/A   Clear
1:15 PM 35.1 °F 22.2 °F 8.4 °F 33% 30.25 in 10.0 mi NW 27.6 mph 34.5 mph N/A   Clear
1:35 PM 35.8 °F 24.5 °F 9.3 °F 33% 30.26 in 10.0 mi NW 21.9 mph 33.4 mph N/A   Clear
1:55 PM 36.1 °F 23.9 °F 9.1 °F 33% 30.26 in 10.0 mi NW 26.5 mph 32.2 mph N/A   Clear
2:15 PM 36.0 °F 24.4 °F 9.3 °F 33% 30.26 in 10.0 mi NW 23.0 mph 31.1 mph N/A   Clear
2:35 PM 36.5 °F 24.7 °F 10.0 °F 34% 30.25 in 10.0 mi NW 25.3 mph 34.5 mph N/A   Clear
2:55 PM 37.0 °F 24.9 °F 9.3 °F 32% 30.25 in 10.0 mi NW 27.6 mph 32.2 mph N/A   Clear
3:15 PM 37.4 °F 26.6 °F 9.5 °F 32% 30.24 in 10.0 mi NNW 21.9 mph 32.2 mph N/A   Clear
3:35 PM 37.8 °F 27.7 °F 9.1 °F 31% 30.24 in 10.0 mi NW 19.6 mph 31.1 mph N/A   Clear
3:55 PM 38.5 °F 27.1 °F 9.3 °F 30% 30.24 in 10.0 mi NW 26.5 mph 33.4 mph N/A   Clear
4:15 PM 38.8 °F 28.8 °F 9.3 °F 30% 30.24 in 10.0 mi NW 20.7 mph 28.8 mph N/A   Clear
4:35 PM 38.8 °F 28.5 °F 9.1 °F 29% 30.24 in 10.0 mi NNW 21.9 mph 31.1 mph N/A   Clear
4:55 PM 38.5 °F 27.3 °F 8.2 °F 29% 30.24 in 10.0 mi NW 25.3 mph 31.1 mph N/A   Clear
5:15 PM 38.5 °F 28.1 °F 8.8 °F 29% 30.24 in 10.0 mi NW 21.9 mph 27.6 mph N/A   Clear
5:35 PM 38.7 °F 29.5 °F 9.5 °F 30% 30.23 in 10.0 mi NW 17.3 mph 25.3 mph N/A   Clear
5:55 PM 38.3 °F 29.0 °F 9.3 °F 30% 30.24 in 10.0 mi NNW 17.3 mph 21.9 mph N/A   Clear
6:15 PM 37.8 °F 28.6 °F 9.3 °F 31% 30.23 in 10.0 mi NNW 16.1 mph 21.9 mph N/A   Clear
6:35 PM 37.2 °F 29.1 °F 9.3 °F 32% 30.23 in 10.0 mi NW 12.7 mph - N/A   Clear
6:55 PM 36.7 °F 28.0 °F 9.9 °F 33% 30.23 in 10.0 mi NNW 13.8 mph - N/A   Clear
7:15 PM 35.8 °F 29.4 °F 9.9 °F 34% 30.23 in 10.0 mi NNW 8.1 mph - N/A   Clear
7:35 PM 34.0 °F 28.0 °F 10.9 °F 38% 30.23 in 10.0 mi North 6.9 mph - N/A   Clear
7:55 PM 32.4 °F 27.9 °F 11.3 °F 42% 30.24 in 10.0 mi North 4.6 mph - N/A   Clear
8:15 PM 31.1 °F - 12.4 °F 46% 30.24 in 10.0 mi Calm Calm - N/A   Clear
8:35 PM 29.5 °F - 12.2 °F 49% 30.25 in 10.0 mi Calm Calm - N/A   Clear
8:55 PM 27.9 °F - 13.8 °F 56% 30.25 in 10.0 mi Calm Calm - N/A   Clear
9:15 PM 28.6 °F - 13.3 °F 53% 30.26 in 10.0 mi Calm Calm - N/A   Clear
9:35 PM 25.7 °F - 13.6 °F 60% 30.26 in 10.0 mi Calm Calm - N/A   Clear
9:55 PM 25.2 °F - 14.4 °F 64% 30.26 in 10.0 mi Calm Calm - N/A   Clear
10:15 PM 23.7 °F - 14.0 °F 66% 30.27 in 10.0 mi Calm Calm - N/A   Clear
10:35 PM 24.4 °F - 14.9 °F 67% 30.27 in 10.0 mi Calm Calm - N/A   Clear
10:55 PM 23.9 °F 15.8 °F 14.5 °F 67% 30.28 in 10.0 mi SW 6.9 mph - N/A   Clear
11:15 PM 23.0 °F - 14.0 °F 68% 30.28 in 10.0 mi Calm Calm - N/A   Clear
11:35 PM 24.4 °F - 13.8 °F 64% 30.28 in 10.0 mi Calm Calm - N/A   Clear
11:55 PM 22.3 °F - 13.8 °F 70% 30.28 in 10.0 mi Calm Calm - N/A   Clear